User: anonymous   Login
Location: Caltech
(34.1382°N, 118.1253°W)
Time: 06:28:56
(UTC-08:00)
Language:

ATLAS 5 CENTAUR R/B - Orbit

View from above orbital plane
View from above orbital plane
View from above satellite
View from above satellite

Ground track
Ground track

The orbit data is extracted from the following two-line orbital elements,

1 30778U 07006G   14327.02627729  .00261518  00000-0  12451-2 0  1776
2 30778 035.6764 161.9929 0010569 296.0923 197.4825 15.81097102429754
Epoch (UTC): 23 November 2014 00:37:50
Eccentricity: 0.0010569
inclination: 35.6764°
perigee height: 320 km
apogee height: 334 km
right ascension of ascending node: 161.9929°
argument of perigee: 296.0923°
revolutions per day: 15.81097102
mean anomaly at epoch: 197.4825°
orbit number at epoch: 42975

The dashed part of the orbit path shows where the satellite is in the earth's shadow,  

DLR